Time,TemperatureF,DewpointF,PressureIn,WindDirection,WindDirectionDegrees,WindSpeedMPH,WindSpeedGustMPH,Humidity,HourlyPrecipIn,Conditions,Clouds,dailyrainin,SolarRadiationWatts/m^2,SoftwareType,DateUTC
2013-03-01 00:02:00,29.0,2.0,-100.00,North,0,4.0,19.0,31,0.00,,,0.00,0.000000,,2013-03-01 07:02:00,
2013-03-01 00:32:00,28.0,2.0,-100.00,North,0,3.0,17.0,32,0.00,,,0.00,0.000000,,2013-03-01 07:32:00,
2013-03-01 00:42:00,28.0,2.0,-100.00,North,0,3.0,17.0,32,0.00,,,0.00,0.000000,,2013-03-01 07:42:00,
2013-03-01 00:52:00,28.0,2.0,-100.00,North,0,3.0,17.0,32,0.00,,,0.00,0.000000,,2013-03-01 07:52:00,
2013-03-01 01:02:00,28.0,2.0,-100.00,North,0,3.0,17.0,32,0.00,,,0.00,0.000000,,2013-03-01 08:02:00,
2013-03-01 01:22:00,26.0,2.0,-100.00,North,0,4.0,12.0,35,0.00,,,0.00,0.000000,,2013-03-01 08:22:00,
2013-03-01 01:32:00,26.0,2.0,-100.00,North,0,4.0,12.0,35,0.00,,,0.00,0.000000,,2013-03-01 08:32:00,
2013-03-01 01:43:00,26.0,2.0,-100.00,North,0,4.0,12.0,35,0.00,,,0.00,0.000000,,2013-03-01 08:43:00,
2013-03-01 01:53:00,26.0,2.0,-100.00,North,0,4.0,12.0,35,0.00,,,0.00,0.000000,,2013-03-01 08:53:00,
2013-03-01 02:02:00,26.0,2.0,-100.00,North,0,4.0,12.0,35,0.00,,,0.00,0.000000,,2013-03-01 09:02:00,
2013-03-01 02:22:00,28.0,3.0,-100.00,North,0,5.0,10.0,33,0.00,,,0.00,0.000000,,2013-03-01 09:22:00,
2013-03-01 02:32:00,28.0,3.0,-100.00,North,0,5.0,10.0,33,0.00,,,0.00,0.000000,,2013-03-01 09:32:00,
2013-03-01 02:42:00,28.0,3.0,-100.00,North,0,5.0,10.0,33,0.00,,,0.00,0.000000,,2013-03-01 09:42:00,
2013-03-01 02:52:00,28.0,3.0,-100.00,North,0,5.0,10.0,33,0.00,,,0.00,0.000000,,2013-03-01 09:52:00,
2013-03-01 03:02:00,28.0,3.0,-100.00,North,0,5.0,10.0,33,0.00,,,0.00,0.000000,,2013-03-01 10:02:00,
2013-03-01 03:32:00,29.0,2.0,-100.00,North,0,5.0,15.0,31,0.00,,,0.00,0.000000,,2013-03-01 10:32:00,
2013-03-01 03:42:00,29.0,2.0,-100.00,North,0,5.0,15.0,31,0.00,,,0.00,0.000000,,2013-03-01 10:42:00,
2013-03-01 03:53:00,29.0,2.0,-100.00,North,0,5.0,15.0,31,0.00,,,0.00,0.000000,,2013-03-01 10:53:00,
2013-03-01 04:01:00,29.0,2.0,-100.00,North,0,5.0,15.0,31,0.00,,,0.00,0.000000,,2013-03-01 11:01:00,
2013-03-01 04:32:00,29.0,3.0,-100.00,North,0,5.0,18.0,32,0.00,,,0.00,0.000000,,2013-03-01 11:32:00,
2013-03-01 04:42:00,29.0,3.0,-100.00,North,0,5.0,18.0,32,0.00,,,0.00,0.000000,,2013-03-01 11:42:00,
2013-03-01 04:52:00,29.0,3.0,-100.00,North,0,5.0,18.0,32,0.00,,,0.00,0.000000,,2013-03-01 11:52:00,
2013-03-01 05:01:00,29.0,3.0,-100.00,North,0,5.0,18.0,32,0.00,,,0.00,0.000000,,2013-03-01 12:01:00,
2013-03-01 05:32:00,29.0,4.0,-100.00,North,0,6.0,19.0,33,0.00,,,0.00,0.000000,,2013-03-01 12:32:00,
2013-03-01 05:42:00,29.0,4.0,-100.00,North,0,6.0,19.0,33,0.00,,,0.00,0.000000,,2013-03-01 12:42:00,
2013-03-01 05:52:00,29.0,4.0,-100.00,North,0,6.0,19.0,33,0.00,,,0.00,0.000000,,2013-03-01 12:52:00,
2013-03-01 06:01:00,29.0,4.0,-100.00,North,0,6.0,19.0,33,0.00,,,0.00,0.000000,,2013-03-01 13:01:00,
2013-03-01 06:32:00,26.0,6.0,-100.00,North,0,3.0,15.0,42,0.00,,,0.00,0.000000,,2013-03-01 13:32:00,
2013-03-01 06:42:00,26.0,6.0,-100.00,North,0,3.0,15.0,42,0.00,,,0.00,0.000000,,2013-03-01 13:42:00,
2013-03-01 06:52:00,26.0,6.0,-100.00,North,0,3.0,15.0,42,0.00,,,0.00,0.000000,,2013-03-01 13:52:00,
2013-03-01 07:01:00,26.0,6.0,-100.00,North,0,3.0,15.0,42,0.00,,,0.00,0.000000,,2013-03-01 14:01:00,
2013-03-01 07:32:00,24.0,5.0,-100.00,North,0,3.0,11.0,44,0.00,,,0.00,10.000000,,2013-03-01 14:32:00,
2013-03-01 07:42:00,24.0,5.0,-100.00,North,0,3.0,11.0,44,0.00,,,0.00,10.000000,,2013-03-01 14:42:00,
2013-03-01 07:52:00,24.0,5.0,-100.00,North,0,3.0,11.0,44,0.00,,,0.00,10.000000,,2013-03-01 14:52:00,
2013-03-01 08:01:00,24.0,5.0,-100.00,North,0,3.0,11.0,44,0.00,,,0.00,10.000000,,2013-03-01 15:01:00,
2013-03-01 08:21:00,34.0,7.0,-100.00,East,79,4.0,10.0,32,0.00,,,0.00,256.000000,,2013-03-01 15:21:00,
2013-03-01 08:32:00,34.0,7.0,-100.00,East,79,4.0,10.0,32,0.00,,,0.00,256.000000,,2013-03-01 15:32:00,
2013-03-01 08:42:00,34.0,7.0,-100.00,East,79,4.0,10.0,32,0.00,,,0.00,256.000000,,2013-03-01 15:42:00,
2013-03-01 08:52:00,34.0,7.0,-100.00,East,79,4.0,10.0,32,0.00,,,0.00,256.000000,,2013-03-01 15:52:00,
2013-03-01 09:01:00,34.0,7.0,-100.00,East,79,4.0,10.0,32,0.00,,,0.00,256.000000,,2013-03-01 16:01:00,
2013-03-01 09:32:00,36.0,8.0,-100.00,East,85,5.0,15.0,31,0.00,,,0.00,530.000000,,2013-03-01 16:32:00,
2013-03-01 09:42:00,36.0,8.0,-100.00,East,85,5.0,15.0,31,0.00,,,0.00,530.000000,,2013-03-01 16:42:00,
2013-03-01 09:52:00,36.0,8.0,-100.00,East,85,5.0,15.0,31,0.00,,,0.00,530.000000,,2013-03-01 16:52:00,
2013-03-01 10:01:00,36.0,8.0,-100.00,East,85,5.0,15.0,31,0.00,,,0.00,530.000000,,2013-03-01 17:01:00,
2013-03-01 10:32:00,39.0,10.0,-100.00,NE,48,6.0,13.0,30,0.00,,,0.00,759.000000,,2013-03-01 17:32:00,
2013-03-01 10:42:00,39.0,10.0,-100.00,NE,48,6.0,13.0,30,0.00,,,0.00,759.000000,,2013-03-01 17:42:00,
2013-03-01 10:52:00,39.0,10.0,-100.00,NE,48,6.0,13.0,30,0.00,,,0.00,759.000000,,2013-03-01 17:52:00,
2013-03-01 11:01:00,39.0,10.0,-100.00,NE,48,6.0,13.0,30,0.00,,,0.00,759.000000,,2013-03-01 18:01:00,
2013-03-01 11:32:00,41.0,11.0,-100.00,NNE,33,6.0,17.0,29,0.00,,,0.00,929.000000,,2013-03-01 18:32:00,
2013-03-01 11:42:00,41.0,11.0,-100.00,NNE,33,6.0,17.0,29,0.00,,,0.00,929.000000,,2013-03-01 18:42:00,
2013-03-01 11:52:00,41.0,11.0,-100.00,NNE,33,6.0,17.0,29,0.00,,,0.00,929.000000,,2013-03-01 18:52:00,
2013-03-01 12:01:00,41.0,11.0,-100.00,NNE,33,6.0,17.0,29,0.00,,,0.00,929.000000,,2013-03-01 19:01:00,
2013-03-01 12:21:00,44.0,9.0,-100.00,ENE,72,8.0,19.0,23,0.00,,,0.00,1018.000000,,2013-03-01 19:21:00,
2013-03-01 12:32:00,44.0,9.0,-100.00,ENE,72,8.0,19.0,23,0.00,,,0.00,1018.000000,,2013-03-01 19:32:00,
2013-03-01 12:42:00,44.0,9.0,-100.00,ENE,72,8.0,19.0,23,0.00,,,0.00,1018.000000,,2013-03-01 19:42:00,
2013-03-01 12:52:00,44.0,9.0,-100.00,ENE,72,8.0,19.0,23,0.00,,,0.00,1018.000000,,2013-03-01 19:52:00,
2013-03-01 13:01:00,44.0,9.0,-100.00,ENE,72,8.0,19.0,23,0.00,,,0.00,1018.000000,,2013-03-01 20:01:00,
2013-03-01 13:22:00,46.0,9.0,-100.00,NNE,20,6.0,16.0,22,0.00,,,0.00,1026.000000,,2013-03-01 20:22:00,
2013-03-01 13:32:00,46.0,9.0,-100.00,NNE,20,6.0,16.0,22,0.00,,,0.00,1026.000000,,2013-03-01 20:32:00,
2013-03-01 13:42:00,46.0,9.0,-100.00,NNE,20,6.0,16.0,22,0.00,,,0.00,1026.000000,,2013-03-01 20:42:00,
2013-03-01 13:52:00,46.0,9.0,-100.00,NNE,20,6.0,16.0,22,0.00,,,0.00,1026.000000,,2013-03-01 20:52:00,
2013-03-01 14:01:00,46.0,9.0,-100.00,NNE,20,6.0,16.0,22,0.00,,,0.00,1026.000000,,2013-03-01 21:01:00,
2013-03-01 14:22:00,47.0,9.0,-100.00,NE,45,7.0,16.0,21,0.00,,,0.00,951.000000,,2013-03-01 21:22:00,
2013-03-01 14:32:00,47.0,9.0,-100.00,NE,45,7.0,16.0,21,0.00,,,0.00,951.000000,,2013-03-01 21:32:00,
2013-03-01 14:42:00,47.0,9.0,-100.00,NE,45,7.0,16.0,21,0.00,,,0.00,951.000000,,2013-03-01 21:42:00,
2013-03-01 14:52:00,47.0,9.0,-100.00,NE,45,7.0,16.0,21,0.00,,,0.00,951.000000,,2013-03-01 21:52:00,
2013-03-01 15:01:00,47.0,9.0,-100.00,NE,45,7.0,16.0,21,0.00,,,0.00,951.000000,,2013-03-01 22:01:00,
2013-03-01 15:32:00,47.0,6.0,-100.00,NNE,22,6.0,18.0,18,0.00,,,0.00,795.000000,,2013-03-01 22:32:00,
2013-03-01 15:42:00,47.0,6.0,-100.00,NNE,22,6.0,18.0,18,0.00,,,0.00,795.000000,,2013-03-01 22:42:00,
2013-03-01 15:52:00,47.0,6.0,-100.00,NNE,22,6.0,18.0,18,0.00,,,0.00,795.000000,,2013-03-01 22:52:00,
2013-03-01 16:01:00,47.0,6.0,-100.00,NNE,22,6.0,18.0,18,0.00,,,0.00,795.000000,,2013-03-01 23:01:00,
2013-03-01 16:32:00,46.0,9.0,-100.00,WNW,302,6.0,16.0,22,0.00,,,0.00,578.000000,,2013-03-01 23:32:00,
2013-03-01 16:42:00,46.0,9.0,-100.00,WNW,302,6.0,16.0,22,0.00,,,0.00,578.000000,,2013-03-01 23:42:00,
2013-03-01 16:52:00,46.0,9.0,-100.00,WNW,302,6.0,16.0,22,0.00,,,0.00,578.000000,,2013-03-01 23:52:00,
2013-03-01 17:02:00,46.0,9.0,-100.00,WNW,302,6.0,16.0,22,0.00,,,0.00,578.000000,,2013-03-02 00:02:00,
2013-03-01 17:32:00,42.0,10.0,-100.00,NNE,25,6.0,12.0,26,0.00,,,0.00,282.000000,,2013-03-02 00:32:00,
2013-03-01 17:42:00,42.0,10.0,-100.00,NNE,25,6.0,12.0,26,0.00,,,0.00,282.000000,,2013-03-02 00:42:00,
2013-03-01 17:52:00,42.0,10.0,-100.00,NNE,25,6.0,12.0,26,0.00,,,0.00,282.000000,,2013-03-02 00:52:00,
2013-03-01 18:01:00,42.0,10.0,-100.00,NNE,25,6.0,12.0,26,0.00,,,0.00,282.000000,,2013-03-02 01:01:00,
2013-03-01 18:32:00,34.0,12.0,-100.00,North,0,3.0,10.0,40,0.00,,,0.00,15.000000,,2013-03-02 01:32:00,
2013-03-01 18:42:00,34.0,12.0,-100.00,North,0,3.0,10.0,40,0.00,,,0.00,15.000000,,2013-03-02 01:42:00,
2013-03-01 18:52:00,34.0,12.0,-100.00,North,0,3.0,10.0,40,0.00,,,0.00,15.000000,,2013-03-02 01:52:00,
2013-03-01 19:01:00,34.0,12.0,-100.00,North,0,3.0,10.0,40,0.00,,,0.00,15.000000,,2013-03-02 02:01:00,
2013-03-01 19:32:00,30.0,12.0,-100.00,North,0,3.0,6.0,47,0.00,,,0.00,0.000000,,2013-03-02 02:32:00,
2013-03-01 19:42:00,30.0,12.0,-100.00,North,0,3.0,6.0,47,0.00,,,0.00,0.000000,,2013-03-02 02:42:00,
2013-03-01 19:52:00,30.0,12.0,-100.00,North,0,3.0,6.0,47,0.00,,,0.00,0.000000,,2013-03-02 02:52:00,
2013-03-01 20:01:00,30.0,12.0,-100.00,North,0,3.0,6.0,47,0.00,,,0.00,0.000000,,2013-03-02 03:01:00,
2013-03-01 20:32:00,31.0,11.0,-100.00,North,0,3.0,5.0,43,0.00,,,0.00,0.000000,,2013-03-02 03:32:00,
2013-03-01 20:42:00,31.0,11.0,-100.00,North,0,3.0,5.0,43,0.00,,,0.00,0.000000,,2013-03-02 03:42:00,
2013-03-01 20:52:00,31.0,11.0,-100.00,North,0,3.0,5.0,43,0.00,,,0.00,0.000000,,2013-03-02 03:52:00,
2013-03-01 21:01:00,31.0,11.0,-100.00,North,0,3.0,5.0,43,0.00,,,0.00,0.000000,,2013-03-02 04:01:00,
2013-03-01 21:32:00,30.0,12.0,-100.00,North,0,3.0,4.0,47,0.00,,,0.00,0.000000,,2013-03-02 04:32:00,
2013-03-01 21:42:00,30.0,12.0,-100.00,North,0,3.0,4.0,47,0.00,,,0.00,0.000000,,2013-03-02 04:42:00,
2013-03-01 21:52:00,30.0,12.0,-100.00,North,0,3.0,4.0,47,0.00,,,0.00,0.000000,,2013-03-02 04:52:00,
2013-03-01 22:01:00,30.0,12.0,-100.00,North,0,3.0,4.0,47,0.00,,,0.00,0.000000,,2013-03-02 05:01:00,
2013-03-01 22:23:00,29.0,12.0,-100.00,North,0,4.0,6.0,48,0.00,,,0.00,0.000000,,2013-03-02 05:23:00,
2013-03-01 22:32:00,29.0,12.0,-100.00,North,0,4.0,6.0,48,0.00,,,0.00,0.000000,,2013-03-02 05:32:00,
2013-03-01 22:42:00,29.0,12.0,-100.00,North,0,4.0,6.0,48,0.00,,,0.00,0.000000,,2013-03-02 05:42:00,
2013-03-01 22:52:00,29.0,12.0,-100.00,North,0,4.0,6.0,48,0.00,,,0.00,0.000000,,2013-03-02 05:52:00,
2013-03-01 23:01:00,29.0,12.0,-100.00,North,0,4.0,6.0,48,0.00,,,0.00,0.000000,,2013-03-02 06:01:00,
2013-03-01 23:32:00,26.0,12.0,-100.00,North,0,2.0,5.0,55,0.00,,,0.00,0.000000,,2013-03-02 06:32:00,
2013-03-01 23:42:00,26.0,12.0,-100.00,North,0,2.0,5.0,55,0.00,,,0.00,0.000000,,2013-03-02 06:42:00,
2013-03-01 23:52:00,26.0,12.0,-100.00,North,0,2.0,5.0,55,0.00,,,0.00,0.000000,,2013-03-02 06:52:00,